"Period start","avg(HW err(1)/warn(2) (#))","avg(Visibility (m))","avg(Weather code (#))","avg(Precip intensity (mm/h))","min(HW err(1)/warn(2) (#))","max(HW err(1)/warn(2) (#))","std(HW err(1)/warn(2) (#))","med(HW err(1)/warn(2) (#))","min(Visibility (m))","max(Visibility (m))","std(Visibility (m))","med(Visibility (m))","min(Weather code (#))","max(Weather code (#))","std(Weather code (#))","med(Weather code (#))","min(Precip intensity (mm/h))","max(Precip intensity (mm/h))","std(Precip intensity (mm/h))","med(Precip intensity (mm/h))"
2016-09-28 00:00:00,2,5471,72,0.24,2,2,0,2,2430,8682,1965,5431,71,77,2,71,0.00,0.70,0.25,0.12
2016-09-28 00:10:00,2,6611,77,0.04,2,2,0,2,3211,11381,2472,6031,77,77,0,77,0.00,0.15,0.05,0.05
2016-09-28 00:20:00,2,4082,73,0.23,2,2,0,2,1533,9142,2656,3000,71,77,3,71,0.00,0.55,0.20,0.17
2016-09-28 00:30:00,2,3276,73,0.50,2,2,0,2,2257,4211,696,3243,71,77,3,71,0.30,1.15,0.24,0.40
2016-09-28 00:40:00,2,3013,71,0.57,2,2,0,2,1791,5152,965,3186,71,71,0,71,0.25,1.10,0.24,0.55
2016-09-28 00:50:00,2,2182,71,0.52,2,2,0,2,1669,2863,362,2194,71,71,0,71,0.30,1.05,0.19,0.47
2016-09-28 01:00:00,2,2916,75,0.30,2,2,0,2,1712,4873,838,2775,71,77,3,77,0.05,0.95,0.25,0.23
2016-09-28 01:10:00,2,3473,75,0.25,2,2,0,2,2204,4967,1041,3428,71,77,3,77,0.05,0.65,0.18,0.20
2016-09-28 01:20:00,2,3112,75,0.32,2,2,0,2,2085,4135,695,3100,71,77,3,77,0.05,0.75,0.25,0.22
2016-09-28 01:30:00,2,2027,71,1.05,2,2,0,2,1140,2949,502,2006,71,71,0,71,0.20,2.25,0.50,1.02
2016-09-28 01:40:00,2,3351,71,0.43,2,2,0,2,2038,4343,776,3386,71,71,0,71,0.20,0.85,0.23,0.38
2016-09-28 01:50:00,2,3697,74,0.21,2,2,0,2,2306,5146,896,3495,71,77,3,74,0.05,0.65,0.17,0.15
2016-09-28 02:00:00,2,2987,73,0.39,2,2,0,2,2389,3800,429,2862,71,77,3,71,0.25,0.50,0.06,0.40
2016-09-28 02:10:00,2,3107,72,0.32,2,2,0,2,1927,4448,862,2659,71,77,2,71,0.05,0.60,0.19,0.35
2016-09-28 02:20:00,2,3366,77,0.25,2,2,0,2,2195,5017,1053,3030,77,77,0,77,0.00,0.70,0.21,0.20
2016-09-28 02:30:00,2,2654,75,0.34,2,2,0,2,1588,3192,453,2659,71,77,3,77,0.15,0.85,0.19,0.28
2016-09-28 02:40:00,2,2821,73,0.37,2,2,0,2,2188,3411,386,2864,71,77,3,71,0.20,0.65,0.16,0.35
2016-09-28 02:50:00,2,4324,73,0.17,2,2,0,2,2456,8106,1670,3906,71,77,3,71,0.05,0.40,0.12,0.17
2016-09-28 03:00:00,2,5710,77,0.07,2,2,0,2,3817,7583,1093,5820,77,77,0,77,0.00,0.20,0.06,0.05
2016-09-28 03:10:00,2,6488,76,0.11,2,2,0,2,4888,8871,1192,6538,67,77,3,77,0.00,0.50,0.14,0.05
2016-09-28 03:20:00,2,5390,64,0.70,2,2,0,2,4054,8721,1309,5040,41,77,12,67,0.05,1.75,0.60,0.38
2016-09-28 03:30:00,2,4530,76,0.33,2,2,0,2,3278,6212,886,4273,67,77,3,77,0.05,0.80,0.24,0.28
2016-09-28 03:40:00,2,9069,31,0.08,2,2,0,2,6647,13499,2047,8305,10,67,19,40,0.00,0.35,0.14,0.00
2016-09-28 03:50:00,2,9397,48,0.20,2,2,0,2,6156,13004,2032,9052,41,54,6,48,0.00,0.70,0.22,0.05
2016-09-28 04:00:00,2,8436,54,0.12,2,2,0,2,6315,10137,1159,8588,54,54,0,54,0.00,0.35,0.09,0.10
2016-09-28 04:10:00,2,9828,54,0.17,2,2,0,2,5863,14392,2754,9016,54,54,0,54,0.00,0.40,0.12,0.15
2016-09-28 04:20:00,2,9102,54,0.14,2,2,0,2,6114,14474,2360,8762,54,54,0,54,0.00,0.40,0.11,0.12
2016-09-28 04:30:00,2,11048,28,0.04,2,2,0,2,6360,14893,2750,11726,0,54,26,32,0.00,0.15,0.06,0.03
2016-09-28 04:40:00,2,10434,50,0.38,2,2,0,2,5933,14527,2301,10127,41,54,6,54,0.05,1.45,0.49,0.17
2016-09-28 04:50:00,2,13717,32,0.04,2,2,0,2,9669,19506,2684,13132,0,54,26,54,0.00,0.15,0.05,0.00
2016-09-28 05:00:00,2,9818,38,0.26,2,2,0,2,7074,12879,1740,10414,0,67,22,41,0.00,0.85,0.28,0.15
2016-09-28 05:10:00,2,10434,41,0.20,2,2,0,2,8654,14831,1680,9956,41,41,0,41,0.05,0.40,0.13,0.15
2016-09-28 05:20:00,2,9639,41,0.17,2,2,0,2,4970,14552,3100,10260,41,41,0,41,0.00,0.40,0.14,0.12
2016-09-28 05:30:00,2,10378,54,0.14,2,2,0,2,7101,16231,2514,9977,54,54,0,54,0.00,0.50,0.15,0.05
2016-09-28 05:40:00,2,9391,54,0.19,2,2,0,2,7481,12462,1517,8836,54,54,0,54,0.05,0.55,0.17,0.12
2016-09-28 05:50:00,2,11622,54,0.07,2,2,0,2,8543,16326,2442,11758,54,54,0,54,0.00,0.15,0.05,0.10
2016-09-28 06:00:00,2,9499,54,0.28,2,2,0,2,6775,14223,2358,8533,54,54,0,54,0.00,0.60,0.19,0.30
2016-09-28 06:10:00,2,6849,51,0.64,2,2,0,2,4374,11263,2350,5709,41,54,5,54,0.10,1.90,0.53,0.45
2016-09-28 06:20:00,2,8453,54,0.21,2,2,0,2,5336,13047,2326,8118,54,54,0,54,0.00,0.65,0.19,0.15
2016-09-28 06:30:00,2,7284,54,0.32,2,2,0,2,5121,9217,1314,7394,54,54,0,54,0.10,0.65,0.18,0.25
2016-09-28 06:40:00,2,9787,54,0.24,2,2,0,2,6045,14743,2396,9696,54,54,0,54,0.00,1.10,0.33,0.15
2016-09-28 06:50:00,2,9162,54,0.54,2,2,0,2,4397,12984,2871,9116,54,54,0,54,0.00,1.50,0.54,0.28
2016-09-28 07:00:00,2,9116,54,0.47,2,2,0,2,5550,12951,2548,9014,54,54,0,54,0.00,1.65,0.53,0.20
2016-09-28 07:10:00,2,10249,54,0.13,2,2,0,2,8147,13892,1867,9590,54,54,0,54,0.00,0.45,0.12,0.10
2016-09-28 07:20:00,2,10833,54,0.14,2,2,0,2,7743,14547,2361,9896,54,54,0,54,0.00,0.55,0.15,0.10
2016-09-28 07:30:00,2,10679,54,0.11,2,2,0,2,7090,15296,2525,9901,54,54,0,54,0.00,0.20,0.08,0.10
2016-09-28 07:40:00,2,9819,28,0.10,2,2,0,2,6003,13231,2113,10348,0,54,24,41,0.00,0.30,0.10,0.08
2016-09-28 07:50:00,2,10887,54,0.10,2,2,0,2,7898,14811,2275,10550,54,54,0,54,0.00,0.30,0.09,0.08
2016-09-28 08:00:00,2,10643,54,0.12,2,2,0,2,6402,13918,2428,11634,54,54,0,54,0.00,0.45,0.13,0.08
2016-09-28 08:10:00,2,9219,50,0.14,2,2,0,2,6493,11910,1829,9711,10,54,13,54,0.00,0.45,0.15,0.08
2016-09-28 08:20:00,2,11455,23,0.01,2,2,0,2,5749,18097,3329,11164,0,54,21,10,0.00,0.05,0.02,0.00
2016-09-28 08:30:00,2,12205,54,0.04,2,2,0,2,7176,19619,3682,10762,54,54,0,54,0.00,0.10,0.04,0.03
2016-09-28 08:40:00,2,12147,24,0.07,2,2,0,2,6432,20375,4356,12604,0,54,25,20,0.00,0.40,0.13,0.00
2016-09-28 08:50:00,2,14314,0,0.00,2,2,0,2,5731,22958,5651,14773,0,0,0,0,0.00,0.00,0.00,0.00
2016-09-28 09:00:00,2,8472,48,0.18,2,2,0,2,3713,11952,2262,8023,41,54,6,48,0.00,0.40,0.12,0.20
2016-09-28 09:10:00,2,9723,28,0.11,2,2,0,2,5413,14613,2960,8988,10,54,19,26,0.00,0.50,0.17,0.00
2016-09-28 09:20:00,2,13037,5,0.00,2,2,0,2,9363,16292,2507,13586,0,10,5,5,0.00,0.00,0.00,0.00
2016-09-28 09:30:00,2,12514,12,0.01,2,2,0,2,6328,17556,3522,12850,0,41,19,0,0.00,0.05,0.02,0.00
2016-09-28 09:40:00,2,11899,22,0.03,2,2,0,2,7143,18444,3113,11562,0,54,22,20,0.00,0.15,0.05,0.00
2016-09-28 09:50:00,2,11902,54,0.07,2,2,0,2,4128,22498,5219,11068,54,54,0,54,0.00,0.30,0.11,0.03
2016-09-28 10:00:00,2,10398,54,0.07,2,2,0,2,6862,15052,2466,9830,54,54,0,54,0.00,0.20,0.06,0.08
2016-09-28 10:10:00,2,11014,8,0.00,2,2,0,2,7418,15565,2330,10848,0,10,4,10,0.00,0.00,0.00,0.00
2016-09-28 10:20:00,2,11925,0,0.00,2,2,0,2,6931,17849,3511,11759,0,0,0,0,0.00,0.00,0.00,0.00
2016-09-28 10:30:00,2,19670,0,0.00,2,2,0,2,9454,28308,6205,20612,0,0,0,0,0.00,0.00,0.00,0.00
2016-09-28 10:40:00,2,11932,0,0.00,2,2,0,2,8310,16416,2613,11930,0,0,0,0,0.00,0.00,0.00,0.00
2016-09-28 10:50:00,2,12491,0,0.00,2,2,0,2,7945,22119,4297,11664,0,0,0,0,0.00,0.00,0.00,0.00
2016-09-28 11:00:00,2,19479,0,0.00,2,2,0,2,12855,31099,6029,18158,0,0,0,0,0.00,0.00,0.00,0.00
2016-09-28 11:10:00,2,19888,4,0.01,2,2,0,2,6305,29266,7320,20944,0,40,12,0,0.00,0.15,0.05,0.00
2016-09-28 11:20:00,2,6994,58,0.21,2,2,0,2,2184,16634,5077,4998,0,77,31,77,0.00,0.60,0.18,0.25
2016-09-28 11:30:00,2,14189,0,0.00,2,2,0,2,7602,21471,4554,14970,0,0,0,0,0.00,0.00,0.00,0.00
2016-09-28 11:40:00,2,13143,26,0.03,2,2,0,2,4228,19959,5120,14044,0,71,28,20,0.00,0.10,0.04,0.00
2016-09-28 11:50:00,2,18291,15,0.00,2,2,0,2,8294,27730,5206,18582,0,77,30,0,0.00,0.00,0.00,0.00
2016-09-28 12:00:00,2,12467,44,0.05,2,2,0,2,3609,28445,9067,9374,0,77,36,71,0.00,0.20,0.06,0.03
2016-09-28 12:10:00,2,11536,44,0.03,2,2,0,2,4654,16101,4040,12929,10,77,34,44,0.00,0.10,0.04,0.00
2016-09-28 12:20:00,2,13242,35,0.04,2,2,0,2,8909,22469,4439,10971,10,41,12,41,0.00,0.10,0.04,0.05
2016-09-28 12:30:00,2,14855,8,0.01,2,2,0,2,8225,24266,5086,12926,0,41,16,0,0.00,0.05,0.02,0.00
2016-09-28 12:40:00,2,24388,0,0.00,2,2,0,2,16712,35538,5496,22912,0,0,0,0,0.00,0.00,0.00,0.00
2016-09-28 12:50:00,2,26900,0,0.00,2,2,0,2,23123,33381,3614,26356,0,0,0,0,0.00,0.00,0.00,0.00
2016-09-28 13:00:00,2,11445,8,0.01,2,2,0,2,6759,16678,3791,10713,0,41,16,0,0.00,0.05,0.02,0.00
2016-09-28 13:10:00,2,5059,73,0.20,2,2,0,2,2162,7138,1522,5219,41,77,11,77,0.10,0.50,0.12,0.15
2016-09-28 13:20:00,2,3490,75,0.35,2,2,0,2,1922,5195,1133,3308,71,77,3,77,0.15,0.70,0.21,0.25
2016-09-28 13:30:00,2,10066,67,0.06,2,2,0,2,3645,20002,5246,9834,0,77,22,74,0.00,0.15,0.06,0.05
2016-09-28 13:40:00,2,12284,77,0.06,2,2,0,2,6285,25390,5877,9532,77,77,0,77,0.00,0.15,0.04,0.05
2016-09-28 13:50:00,2,21242,24,0.02,2,2,0,2,13532,39099,8430,19524,0,77,31,0,0.00,0.10,0.03,0.00
2016-09-28 14:00:00,2,16612,33,0.03,2,2,0,2,11579,24536,3951,15029,0,41,16,41,0.00,0.05,0.03,0.03
2016-09-28 14:10:00,2,16847,12,0.02,2,2,0,2,9463,26250,5192,17076,0,41,19,0,0.00,0.10,0.03,0.00
2016-09-28 14:20:00,2,19251,8,0.01,2,2,0,2,10812,26538,4374,18576,0,41,16,0,0.00,0.05,0.02,0.00
2016-09-28 14:30:00,2,9922,42,0.04,2,2,0,2,7003,15784,2409,9455,0,77,25,41,0.00,0.10,0.04,0.03
2016-09-28 14:40:00,2,17266,23,0.01,2,2,0,2,15104,20352,1667,17060,0,77,35,0,0.00,0.05,0.02,0.00
2016-09-28 14:50:00,2,18094,0,0.00,2,2,0,2,11988,24163,3409,18449,0,0,0,0,0.00,0.00,0.00,0.00
2016-09-28 15:00:00,2,17661,0,0.00,2,2,0,2,12651,35801,6716,15700,0,0,0,0,0.00,0.00,0.00,0.00
2016-09-28 15:10:00,2,19927,0,0.00,2,2,0,2,12071,29140,4951,18625,0,0,0,0,0.00,0.00,0.00,0.00
2016-09-28 15:20:00,2,11442,0,0.00,2,2,0,2,8521,14987,2154,10614,0,0,0,0,0.00,0.00,0.00,0.00
2016-09-28 15:30:00,2,18342,0,0.00,2,2,0,2,9611,30565,5808,17183,0,0,0,0,0.00,0.00,0.00,0.00
2016-09-28 15:40:00,2,22881,0,0.00,2,2,0,2,11583,31661,6281,24236,0,0,0,0,0.00,0.00,0.00,0.00
2016-09-28 15:50:00,2,20939,0,0.00,2,2,0,2,16829,24607,2901,21488,0,0,0,0,0.00,0.00,0.00,0.00
2016-09-28 16:00:00,2,21548,0,0.00,2,2,0,2,16824,26571,3052,20870,0,0,0,0,0.00,0.00,0.00,0.00
2016-09-28 16:10:00,2,27187,0,0.00,2,2,0,2,20120,33903,4287,26876,0,0,0,0,0.00,0.00,0.00,0.00
2016-09-28 16:20:00,2,17282,0,0.00,2,2,0,2,8945,27131,5823,17732,0,0,0,0,0.00,0.00,0.00,0.00
2016-09-28 16:30:00,2,15315,0,0.00,2,2,0,2,10578,19804,3374,14426,0,0,0,0,0.00,0.00,0.00,0.00
2016-09-28 16:40:00,2,30751,0,0.00,2,2,0,2,21596,37587,4089,31112,0,0,0,0,0.00,0.00,0.00,0.00
2016-09-28 16:50:00,2,18673,0,0.00,2,2,0,2,8947,28671,6887,18344,0,0,0,0,0.00,0.00,0.00,0.00
2016-09-28 17:00:00,2,7859,53,0.00,2,2,0,2,4943,14232,2364,7620,0,77,24,56,0.00,0.00,0.00,0.00
2016-09-28 17:10:00,2,32754,11,0.00,2,2,0,2,21754,46038,8764,31024,0,77,23,0,0.00,0.00,0.00,0.00
2016-09-28 17:20:00,2,23393,0,0.00,2,2,0,2,12039,35360,7842,26356,0,0,0,0,0.00,0.00,0.00,0.00
2016-09-28 17:30:00,2,15927,0,0.00,2,2,0,2,10205,21598,3257,15162,0,0,0,0,0.00,0.00,0.00,0.00
2016-09-28 17:40:00,2,19266,0,0.00,2,2,0,2,12587,31026,6313,16064,0,0,0,0,0.00,0.00,0.00,0.00
2016-09-28 17:50:00,2,23907,0,0.00,2,2,0,2,16890,38704,5940,22990,0,0,0,0,0.00,0.00,0.00,0.00
2016-09-28 18:00:00,2,26325,0,0.00,2,2,0,2,18093,37428,6034,26186,0,0,0,0,0.00,0.00,0.00,0.00
2016-09-28 18:10:00,2,25859,0,0.00,2,2,0,2,20287,30949,3408,26350,0,0,0,0,0.00,0.00,0.00,0.00
2016-09-28 18:20:00,2,22466,0,0.00,2,2,0,2,16488,27497,3607,21913,0,0,0,0,0.00,0.00,0.00,0.00
2016-09-28 18:30:00,2,16872,0,0.00,2,2,0,2,8314,28081,5612,16115,0,0,0,0,0.00,0.00,0.00,0.00
2016-09-28 18:40:00,2,26824,0,0.00,2,2,0,2,10319,43920,8600,27698,0,0,0,0,0.00,0.00,0.00,0.00
2016-09-28 18:50:00,2,43819,0,0.00,2,2,0,2,33109,50000,5426,45424,0,0,0,0,0.00,0.00,0.00,0.00
2016-09-28 19:00:00,2,37606,0,0.00,2,2,0,2,29014,46773,6501,36978,0,0,0,0,0.00,0.00,0.00,0.00
2016-09-28 19:10:00,2,35276,0,0.00,2,2,0,2,27197,43600,6165,33907,0,0,0,0,0.00,0.00,0.00,0.00
2016-09-28 19:20:00,2,39017,0,0.00,2,2,0,2,32400,43557,3081,38456,0,0,0,0,0.00,0.00,0.00,0.00
2016-09-28 19:30:00,2,39531,0,0.00,2,2,0,2,31777,45731,4531,38103,0,0,0,0,0.00,0.00,0.00,0.00
2016-09-28 19:40:00,2,46904,0,0.00,2,2,0,2,39876,50000,2779,47390,0,0,0,0,0.00,0.00,0.00,0.00
2016-09-28 19:50:00,2,43823,0,0.00,2,2,0,2,38649,50000,4250,42162,0,0,0,0,0.00,0.00,0.00,0.00
2016-09-28 20:00:00,2,32420,0,0.00,2,2,0,2,18786,45292,8836,31594,0,0,0,0,0.00,0.00,0.00,0.00
2016-09-28 20:10:00,2,28945,0,0.00,2,2,0,2,23131,37793,4838,29578,0,0,0,0,0.00,0.00,0.00,0.00
2016-09-28 20:20:00,2,26625,0,0.00,2,2,0,2,18658,31114,3977,28510,0,0,0,0,0.00,0.00,0.00,0.00
2016-09-28 20:30:00,2,38914,0,0.00,2,2,0,2,32543,46819,4896,37042,0,0,0,0,0.00,0.00,0.00,0.00
2016-09-28 20:40:00,2,45683,0,0.00,2,2,0,2,35403,50000,4681,46855,0,0,0,0,0.00,0.00,0.00,0.00
2016-09-28 20:50:00,2,31461,0,0.00,2,2,0,2,13781,49129,12770,33982,0,0,0,0,0.00,0.00,0.00,0.00
2016-09-28 21:00:00,2,44273,0,0.00,2,2,0,2,37039,49507,4381,45454,0,0,0,0,0.00,0.00,0.00,0.00
2016-09-28 21:10:00,2,46168,0,0.00,2,2,0,2,37431,50000,4252,47892,0,0,0,0,0.00,0.00,0.00,0.00
2016-09-28 21:20:00,2,49437,0,0.00,2,2,0,2,45271,50000,1414,50000,0,0,0,0,0.00,0.00,0.00,0.00
2016-09-28 21:30:00,2,37163,0,0.00,2,2,0,2,23949,50000,9827,35041,0,0,0,0,0.00,0.00,0.00,0.00
2016-09-28 21:40:00,2,45714,0,0.00,2,2,0,2,37441,50000,4462,47160,0,0,0,0,0.00,0.00,0.00,0.00
2016-09-28 21:50:00,2,48991,0,0.00,2,2,0,2,41733,50000,2472,50000,0,0,0,0,0.00,0.00,0.00,0.00
2016-09-28 22:00:00,2,48773,0,0.00,2,2,0,2,40537,50000,2771,49806,0,0,0,0,0.00,0.00,0.00,0.00
2016-09-28 22:10:00,2,45477,0,0.00,2,2,0,2,30731,50000,7222,50000,0,0,0,0,0.00,0.00,0.00,0.00
2016-09-28 22:20:00,2,48021,0,0.00,2,2,0,2,43941,50000,2165,48806,0,0,0,0,0.00,0.00,0.00,0.00
2016-09-28 22:30:00,2,46128,0,0.00,2,2,0,2,33634,50000,5780,49652,0,0,0,0,0.00,0.00,0.00,0.00
2016-09-28 22:40:00,2,45532,0,0.00,2,2,0,2,31875,50000,6012,49494,0,0,0,0,0.00,0.00,0.00,0.00
2016-09-28 22:50:00,2,48162,0,0.00,2,2,0,2,41989,50000,2951,49758,0,0,0,0,0.00,0.00,0.00,0.00
2016-09-28 23:00:00,2,50000,0,0.00,2,2,0,2,50000,50000,0,50000,0,0,0,0,0.00,0.00,0.00,0.00
2016-09-28 23:10:00,2,50000,0,0.00,2,2,0,2,50000,50000,0,50000,0,0,0,0,0.00,0.00,0.00,0.00
2016-09-28 23:20:00,2,50000,0,0.00,2,2,0,2,50000,50000,0,50000,0,0,0,0,0.00,0.00,0.00,0.00
2016-09-28 23:30:00,2,50000,0,0.00,2,2,0,2,50000,50000,0,50000,0,0,0,0,0.00,0.00,0.00,0.00
2016-09-28 23:40:00,2,49818,0,0.00,2,2,0,2,48177,50000,547,50000,0,0,0,0,0.00,0.00,0.00,0.00
2016-09-28 23:50:00,2,49847,0,0.00,2,2,0,2,49165,50000,308,50000,0,0,0,0,0.00,0.00,0.00,0.00
